Regional Weather Roundup
Issued by NWS

Home | Current Version | Previous Version | Graphics & Text | Print | Product List | Glossary On
Versions: 1 2 3 4 5 6 7 8 9 10 11 12 13 14 15 16 17 18 19 20 21 22 23 24 25 26 27 28 29 30 31 32 33 34 35 36 37 38 39 40 41 42 43 44 45 46 47 48 49 50
000
ASUS43 KOAX 041102
RWRNE

WEATHER ROUNDUP FOR NEBRASKA
NATIONAL WEATHER SERVICE OMAHA NE
600 AM CDT TUE AUG 04 2015

NOTES: SATELLITE DATA IS BEING USED TO AUGMENT CLOUD COVER ABOVE
       12000 FEET.
       "FAIR" INDICATES FEW OR NO CLOUDS BELOW 12,000 FEET WITH NO
       SIGNIFICANT WEATHER AND/OR OBSTRUCTIONS TO VISIBILITY.

  * THESE STATIONS DO NOT REPORT WEATHER SUCH AS RAIN...SNOW OR FOG.

NEZ001>004-019>022-054>056-041200-
NEBRASKA PANHANDLE

CITY           SKY/WX    TMP DP  RH WIND       PRES   REMARKS
SCOTTSBLUFF    CLEAR     60  53  77 SE5       29.95R
ALLIANCE       CLEAR     54  51  90 S6        29.95R
CHADRON        CLEAR     60  56  86 SE5       29.94R
KIMBALL        PTCLDY    57  50  77 W6        29.98S
SIDNEY         CLEAR     55  50  83 SW6       29.97F
$$

NEZ057>060-069>072-079>082-041200-
SOUTHWEST NEBRASKA

CITY           SKY/WX    TMP DP  RH WIND       PRES   REMARKS
NORTH PLATTE   CLOUDY    66  66 100 E8        29.94R FOG
IMPERIAL       FOG       66  65  96 CALM      29.94R VSB 1/4
LEXINGTON      CLOUDY    69  68  95 E9        29.94R FOG
MCCOOK         FOG       67  67 100 NE5       29.91R VSB 1/4
OGALLALA       CLOUDY    67  66  99 CALM      29.95R FOG
$$

NEZ005>010-023>029-035>040-094-041200-
NORTH CENTRAL NEBRASKA

CITY           SKY/WX    TMP DP  RH WIND       PRES   REMARKS
AINSWORTH      MOCLDY    65  60  82 E10       30.03R THUNDER
BROKEN BOW     CLOUDY    69  65  86 E14G22    29.98R
O`NEILL        TSTM      64  64  97 SE9       30.00F
ORD            CLOUDY    70  61  73 E9        29.96S
THEDFORD       HVY RAIN  66  65  94 E10G21    30.02R
$$

NEZ041-046>049-061>064-073>077-083>087-041200-
SOUTH CENTRAL NEBRASKA

CITY           SKY/WX    TMP DP  RH WIND       PRES   REMARKS
GRAND ISLAND   CLOUDY    68  64  87 NE15      29.99R
AURORA         CLOUDY    67  66  99 N15       29.99R
HASTINGS       CLOUDY    70  68  93 S10       29.93F FOG
HEBRON         MOCLDY    70  67  91 SE6       29.93S
HOLDREGE       FOG       67  65  96 E5        29.93R VSB 1/2
KEARNEY *      CLOUDY    68  66  94 E9        29.95R VSB 3/4
YORK           MOCLDY    66  64  94 NE9       29.97R
$$

NEZ011>018-030>034-042>045-041200-
NORTHEAST NEBRASKA

CITY           SKY/WX    TMP DP  RH WIND       PRES   REMARKS
NORFOLK        LGT RAIN  65  64  97 S6        29.99R
ALBION         TSTM      63  61  94 E5        30.00F
BLAIR          CLOUDY    66  60  80 S6        29.98R
COLUMBUS *     CLOUDY    64  57  77 N9        30.03R
FREMONT        CLOUDY    69  66  89 N5        29.98F
TEKAMAH        CLOUDY    68  66  93 W8        30.01R
WAYNE          CLOUDY    67  64  90 CALM      29.99S
$$

NEZ050>053-065>068-078-088>093-041200-
SOUTHEAST NEBRASKA

CITY           SKY/WX    TMP DP  RH WIND       PRES   REMARKS
LINCOLN        CLOUDY    71  64  78 NE16      29.99R
OMAHA EPPLEY   CLOUDY    69  65  86 CALM      29.99R
BEATRICE       PTCLDY    69  67  93 E5        29.94R
FALLS CITY     PTCLDY    69  67  93 E7        29.95R
NEBRASKA CITY  CLOUDY    66  66  97 SE5       29.96R
PLATTSMOUTH    CLOUDY    67  64  88 E6        29.96R
$$

NEZ044-045-051>053-067-041200-
OMAHA AREA

CITY           SKY/WX    TMP DP  RH WIND       PRES   REMARKS
OMAHA EPPLEY   CLOUDY    69  65  86 CALM      29.99R
BLAIR          CLOUDY    66  60  80 S6        29.98R
FREMONT        CLOUDY    69  66  89 N5        29.98F
MILLARD        CLOUDY    71  63  75 W3        30.00R
OFFUTT AFB     CLOUDY    68  63  83 N5        29.96R
PLATTSMOUTH    CLOUDY    67  64  88 E6        29.96R
WAHOO          RAIN      66  64  93 S12       29.97F
$$



USA.gov is the U.S. government's official web portal to all federal, state and local government web resources and services.